Terminal Aerodrome Forecast
Issued by NWS

Home | Current Version | Previous Version | Text Only | Print | Product List | Glossary On
Versions: 1 2 3 4 5 6 7 8 9 10 11 12 13 14 15 16 17 18 19 20 21 22 23 24 25 26 27 28 29 30 31 32 33 34 35
000
FTUS43 KGRB 190800 AAA
TAFRHI
TAF AMD
KRHI 190811Z 1908/2006 VRB03KT P6SM SCT002
      TEMPO 1908/1912 1 1/2SM BR OVC002
     FM191200 VRB03KT 5SM BR OVC012
     FM191500 19003KT 6SM BR BKN015
     FM192100 20002KT P6SM SCT015 OVC100
     FM200200 20002KT 6SM BR BKN012=

USA.gov is the U.S. government's official web portal to all federal, state and local government web resources and services.